This is the latest recevied weather packets stored in our database for station/object N2QKV-13. If no packets are shown the sender has not sent any weather packets the latest 10 day(s).
| Time | Temp. | Humidity | Pressure | Rain* | Wind** | Luminosity | Snow |
|---|---|---|---|---|---|---|---|
| 1777763103 | 13.33° C | 70% | 1010.2 hPa | 0 mm | - | - | - |
| 1777762803 | 13.33° C | 69% | 1010.1 hPa | 0 mm | - | - | - |
| 1777762504 | 13.33° C | 70% | 1010.2 hPa | 0 mm | - | - | - |
| 1777762204 | 13.33° C | 69% | 1010.2 hPa | 0 mm | - | - | - |
| 1777761904 | 13.89° C | 67% | 1010.2 hPa | 0 mm | - | - | - |
| 1777761604 | 13.89° C | 66% | 1010.2 hPa | 0 mm | - | - | - |
| 1777761304 | 13.89° C | 67% | 1010.1 hPa | 0 mm | - | - | - |
| 1777761004 | 13.89° C | 66% | 1010.1 hPa | 0 mm | - | - | - |
| 1777760703 | 13.89° C | 65% | 1010.2 hPa | 0 mm | - | - | - |
| 1777760404 | 13.89° C | 66% | 1010.2 hPa | 0 mm | - | - | - |
| 1777760103 | 13.89° C | 65% | 1010.1 hPa | 0 mm | - | - | - |
| 1777759804 | 13.89° C | 67% | 1010.1 hPa | 0 mm | - | - | - |
| 1777759504 | 13.89° C | 67% | 1010.1 hPa | 0 mm | - | - | - |
| 1777759203 | 13.89° C | 68% | 1010 hPa | 0 mm | - | - | - |
| 1777758904 | 13.89° C | 69% | 1010.2 hPa | 0 mm | - | - | - |
| 1777758604 | 13.89° C | 66% | 1010.3 hPa | 0 mm | - | - | - |
| 1777758304 | 13.89° C | 67% | 1010.4 hPa | 0 mm | - | - | - |
| 1777758004 | 13.89° C | 65% | 1010.3 hPa | 0 mm | - | - | - |
| 1777757703 | 14.44° C | 65% | 1010.1 hPa | 0 mm | - | - | - |
| 1777757403 | 14.44° C | 66% | 1010 hPa | 0 mm | - | - | - |
| 1777757103 | 13.89° C | 67% | 1010.1 hPa | 0 mm | - | - | - |
| 1777756804 | 13.89° C | 67% | 1010.1 hPa | 0 mm | - | - | - |
| 1777756504 | 13.89° C | 69% | 1010 hPa | 0 mm | - | - | - |
| 1777756203 | 13.89° C | 69% | 1009.8 hPa | 0 mm | - | - | - |
| 1777755903 | 13.89° C | 69% | 1009.8 hPa | 0 mm | - | - | - |
* Rain latest hour (hover to see other rain measurements)
** Current wind speed in m/s (hover to see current wind gust speed)